SENTINEL-5P (42969 NORAD) Tracking and Keplerian Element Data

This shows tracking and keplerian element data for the satellite.

Feedback or suggestion? Click here.




ElementValue
Catalog42969
NameSENTINEL-5P
Epoch Orbit12773
Epoch Day91.78976563
Epoch Year2020
RAAN31.9958
Inclination98.7293
Eccentricity0.0001036
Argument of Perigee87.1734
Mean Anonmoly272.956
Mean Motion14.19551301
Decay Rate-4E-08
L11 42969U 17064A 20091.78976563 -.00000004 00000-0 19080-4 0 9998
L22 42969 98.7293 31.9958 0001036 87.1734 272.9560 14.19551301127736

Live tracking and technical data element details for SENTINEL-5P (NORAD 42969). SENTINEL-5P can be tracked NOW for your location showing map with azimuth and elevation plus other details from your city location.

Track the satellite on the map from your city or location and see movement details for azimuth, elevation, latitude, longitude, range, height, and movement on the map or in text.







IsCatalogInMostPopularTable: catalog: 42969, numindb: 614
Update: records affected: 1



GetName: 42969 SENTINEL-5P

Hit Count: updated at: Fri, 03 Apr 2020 07:45:30 GMT